Погода в Алымке

Россия / Тюменская область     59°01′30″N   68°48′14″E
темп.,
°C
ветер,
м/с
пор.,
м/с
влажн.,
%
обл.,
%
осадки,
мм/ч
давл.,
гПа
погр.,
м
17 мая, пн
пн1723:00+17ююв4861100 0.0 1013129
02:00+14всв6108045 0.2 1014175
05:00+14ю368039 0.3 1012112
08:00+22зюз5954100 0.0 1011452
11:00+28з7123494 0.0 10101931
14:00+29зсз8132973 0.0 10103365
17:00+18сз101770100 1.5 1010900
20:00+17з51079100 1.3 1010443
18 мая, вт
вт1823:00+14зюз49876 1.3 1010173
02:00+13зюз349493 0.1 100970
05:00+14з3109054 0.4 1009288
08:00+17ссз347895 0.0 1010571
11:00+15с7885100 1.3 1011761
14:00+11с6987100 0.4 1015807
17:00+11ссв6117865 0.4 1018933
20:00+12ссв376823 0.1 1019381
19 мая, ср
ср1923:00+8ссз2279100 0.1 102121
02:00+7с338054 0.0 102251
05:00+6с35715 0.0 1024111
08:00+12с354729 0.0 1024686
11:00+14с56378 0.0 10241501
14:00+17ссз56356 0.0 10241692
17:00+17ссз453648 0.0 10231534
20:00+14ссв225245 0.0 102315
20 мая, чт
чт2023:00+10ю225635 0.0 102212
02:00+10юз376561 0.0 1021113
05:00+10юз4126770 0.0 1019246
08:00+17з7125048 0.0 1016539
11:00+23зсз8123952 0.0 10141413
14:00+26зсз912345 0.0 10131924
17:00+27зсз812355 0.0 10122404
20:00+23з612444 0.0 1011300
21 мая, пт
пт2123:00+20з613495 0.0 1011227
02:00+16зсз36665 0.0 101274
05:00+16зсз36724 0.0 1013109
08:00+22зсз45515 0.0 1013442
11:00+26сз684153 0.0 10131105
14:00+28сз69331 0.0 10131649
17:00+29ссз573167 0.0 10132542
20:00+24с225410 0.0 101417